Regional Weather Roundup
Issued by NWS

Home | Current Version | Previous Version | Graphics & Text | Print | Product List | Glossary On
Versions: 1 2 3 4 5 6 7 8 9 10 11 12 13 14 15 16 17 18 19 20 21 22 23 24 25 26 27 28 29 30 31 32 33 34 35 36 37 38 39 40 41 42 43 44 45 46 47 48
000
ASUS45 KSLC 230510
RWRUT

UTAH REGIONAL WEATHER ROUNDUP
NATIONAL WEATHER SERVICE SALT LAKE CITY UT
1100 PM MDT TUE JUL 22 2014

UTZ001>011-023>025-230600-

NORTHERN UTAH

CITY           SKY/WX    TMP DP  RH WIND       PRES   REMARKS
HILL AFB       CLEAR     81  36  19 SE14      30.13R
LOGAN          NOT AVBL
OGDEN          CLEAR     79  37  22 S7        30.09R
PROVO AIRPORT  CLEAR     73  52  46 CALM      30.14R
SALT LAKE CITY PTCLDY    80  47  31 SE7       30.08R
VERNAL         CLEAR     73  32  22 NW6       30.21R
WENDOVER       CLEAR     82  37  20 NE9       30.06R
HEBER CITY     CLEAR     59  43  55 CALM      30.24R
WEST JORDAN    CLEAR     79  46  31 CALM      30.13R

$$

UTZ012>022-026-027-230600-

SOUTHERN UTAH

CITY           SKY/WX    TMP DP  RH WIND       PRES   REMARKS
BRYCE CANYON   CLEAR     59  33  37 W8        30.44R
CEDAR CITY     CLEAR     74  29  19 S6        30.25R
MILFORD        CLEAR     76  35  22 CALM      30.18R
MOAB/CYNLANDS  CLEAR     81  17   9 CALM      30.11S
PRICE          CLEAR     73  15  11 W5        30.26S
ST GEORGE      CLEAR     90  28  11 S5        30.03R

$$

REGIONAL REPORTS     COLORADO/ARIZONA

CITY           SKY/WX    TMP DP  RH WIND       PRES   REMARKS
CRAIG, CO      CLEAR     56  45  66 CALM      30.33R
GRAND JUNCTION CLEAR     76  16  10 E5        30.15R
RIFLE          CLEAR     75  26  16 SE8       30.25R
MONTROSE       MOCLDY    77  39  25 SE7       30.27R
CORTEZ         CLEAR     86  35  16 SE21G28   30.30R
PAGE, AZ       PTCLDY    93  33  12 S7        30.12R
GRAND CANYON   CLOUDY    69  41  36 CALM      30.37R
KINGMAN        CLEAR     83  25  12 S13       30.09R
FLAGSTAFF      PTCLDY    67  40  37 CALM      30.41R

$$

REGIONAL REPORTS    NEVADA/IDAHO/WYOMING

CITY           SKY/WX    TMP DP  RH WIND       PRES   REMARKS
LAS VEGAS, NV  CLEAR     97  25   7 SW14      29.92R HX  90
ELY            CLEAR     67  14  13 S16       30.27R
ELKO           CLEAR     78  20  11 W10G20    30.08R
POCATELLO, ID  CLEAR     66  51  58 E3        30.11F
BURLEY         CLEAR     67  50  54 E3        30.03F
EVANSTON, WY   CLEAR     73  35  25 E8        30.37S
ROCK SPRINGS   CLEAR     75  22  13 E7        30.36R

$$



USA.gov is the U.S. government's official web portal to all federal, state and local government web resources and services.